Back to catalog

STARLINK-34821

AliveCommunicationsVLEO
NORAD 65199·PAYLOAD·🇺🇸 United States

Launched Aug 14, 2025 from Cape Canaveral Space Force Station

Loading…

Next Passes (next 24 hours)

TLE

FreshSource: CelesTrak SupGP

Epoch: Sep 14, 2026, 21:13 UTC

1 65199C 25176B   26257.88451389 -.00005866  00000+0 -17333-3 0  2572
2 65199  53.1599 349.6709 0001214  84.9765  44.6111 15.34390534    14

Track STARLINK-34821 in real time with AllMySat

Download on the App Store